sat.trackr.live / text

‹ back to catalog

TIANQI-6

NORAD 46810 · 2020-076D

PAYLOAD ACTIVE UNKNOWN

§ Identity

Operator
Country
PRC
Launch date
2020-10-26
Launch site
XICLF
Launch vehicle
Mass (kg)
RCS (m²)

External: N2YO · Heavens-Above · Gunter

§ Orbital elements

Epoch: 2026-09-13T03:47:22.147008Z

Period
95.51 min
Inclination
34.9980°
Eccentricity
0.0011029
Mean motion
15.07667419 rev/d
Perigee alt
535.7 km
Apogee alt
551.0 km
Semi-major
6,921.5 km
B*
1.8194e-4
RAAN
228.3456°
Arg perigee
228.2318°
Mean anomaly
131.7449°
Rev number
32,186

§ Raw data

TIANQI-61 46810U 20076D   26256.15789522  .00002807  00000+0  18194-3 0  99962 46810  34.9980 228.3456 0011029 228.2318 131.7449 15.07667419321868

JSON: /api/v1/satellites/46810 · /tle

For live sub-satellite position, see the globe view (requires WebGL).

§ Visibility from observer

Set your observer location to see the next 7 days of passes ≥ 10°. The values pass through the URL so the page stays shareable.

No JS? Fill the form by hand. The geolocation button needs JavaScript.

§ Radio — SatNOGS DB

ModeDescriptionDownlinkUplink
Downlink 400.500 MHz

1 transmitter · refreshed weekly from db.satnogs.org